TimeEDT,TemperatureF,Dew PointF,Humidity,Sea Level PressureIn,VisibilityMPH,Wind Direction,Wind SpeedMPH,Gust SpeedMPH,PrecipitationIn,Events,Conditions,WindDirDegrees,DateUTC
12:53 AM,69.1,59.0,70,30.06,10.0,SE,5.8,-,N/A,,Mostly Cloudy,130,2013-03-18 04:53:00
1:53 AM,68.0,60.1,76,30.05,10.0,SE,4.6,-,N/A,,Mostly Cloudy,130,2013-03-18 05:53:00
2:53 AM,68.0,60.1,76,30.04,10.0,SSE,3.5,-,N/A,,Mostly Cloudy,150,2013-03-18 06:53:00
3:53 AM,66.0,60.1,81,30.04,10.0,Calm,Calm,-,N/A,,Overcast,0,2013-03-18 07:53:00
4:53 AM,69.1,61.0,75,30.03,10.0,South,3.5,-,N/A,,Overcast,180,2013-03-18 08:53:00
5:53 AM,71.1,62.1,73,30.02,10.0,SE,9.2,-,N/A,,Overcast,140,2013-03-18 09:53:00
6:53 AM,70.0,62.1,76,30.05,10.0,SSE,6.9,-,0.00,,Mostly Cloudy,160,2013-03-18 10:53:00
7:53 AM,71.1,62.1,73,30.05,10.0,SE,11.5,-,N/A,,Mostly Cloudy,140,2013-03-18 11:53:00
8:53 AM,73.9,63.0,68,30.06,10.0,SE,15.0,23.0,N/A,,Mostly Cloudy,140,2013-03-18 12:53:00
9:53 AM,73.9,64.0,71,30.07,10.0,SSE,15.0,20.7,N/A,,Mostly Cloudy,150,2013-03-18 13:53:00
10:53 AM,77.0,64.0,64,30.07,10.0,SSE,16.1,-,0.00,Rain,Light Rain,160,2013-03-18 14:53:00
11:53 AM,78.1,64.0,62,30.05,10.0,SSE,19.6,28.8,0.00,,Mostly Cloudy,150,2013-03-18 15:53:00
12:53 PM,79.0,64.0,60,30.04,10.0,SSE,20.7,26.5,N/A,,Mostly Cloudy,160,2013-03-18 16:53:00
1:53 PM,79.0,64.0,60,30.01,10.0,SSE,13.8,23.0,N/A,,Mostly Cloudy,150,2013-03-18 17:53:00
2:53 PM,79.0,64.9,62,29.99,10.0,South,15.0,-,N/A,,Mostly Cloudy,170,2013-03-18 18:53:00
3:53 PM,79.0,64.9,62,29.97,10.0,SSE,15.0,-,N/A,,Mostly Cloudy,150,2013-03-18 19:53:00
4:53 PM,75.0,66.0,73,29.98,10.0,SSE,16.1,24.2,0.00,Rain,Light Rain,160,2013-03-18 20:53:00
5:53 PM,73.0,69.1,87,29.98,4.0,SSE,9.2,-,0.03,Rain,Rain,160,2013-03-18 21:53:00
6:53 PM,73.0,70.0,90,29.99,7.0,South,4.6,-,0.05,Rain,Light Rain,170,2013-03-18 22:53:00
7:21 PM,71.6,69.8,94,30.00,7.0,Calm,Calm,-,0.03,Rain,Light Rain,0,2013-03-18 23:21:00
7:53 PM,69.1,64.9,87,30.01,4.0,West,13.8,-,0.18,Rain,Rain,280,2013-03-18 23:53:00
8:53 PM,66.9,64.9,93,30.02,4.0,WSW,4.6,-,0.22,Rain,Rain,250,2013-03-19 00:53:00
9:40 PM,66.2,62.6,88,29.99,7.0,South,8.1,-,0.08,Rain,Light Rain,190,2013-03-19 01:40:00
9:53 PM,68.0,63.0,84,29.98,7.0,SSW,3.5,-,0.08,Rain,Light Rain,200,2013-03-19 01:53:00
10:53 PM,69.1,64.0,84,29.99,10.0,SSE,4.6,-,0.01,Rain,Light Rain,160,2013-03-19 02:53:00
11:53 PM,70.0,62.1,76,29.97,10.0,SSE,6.9,-,0.00,,Overcast,160,2013-03-19 03:53:00